Weather in Putila

Ukraine / Chernovtci District     47°59′42″N   25°06′13″E
temp.,
°C
wind,
m/s
gust,
m/s
humid.,
%
clouds,
%
prec.,
mm/h
press.,
hPa
HPBL,
m
1 march, mon
mon123:00−4sw2292100 0.0 102936
02:00−2w1197100 0.7 102958
05:00−2n2498100 2.8 1029311
08:00−2n3797100 4.5 1030466
11:00−1n2597100 1.3 1031359
14:00−1n3597100 3.3 1032422
17:00−1n2495100 0.6 1033443
20:00−2nw1198100 0.9 103566
2 march, tue
tue223:00−3nw119896 0.3 103648
02:00−6sw119374 0.3 103721
05:00−5sw22830 0.0 103521
08:00−3sw22767 0.0 103526
11:00+5wsw126819 0.0 1032283
14:00+8w136210 0.0 1031562
17:00+5wsw22840 0.0 103049
20:00−2sw22870 0.0 103234
3 march, wed
wed323:00−3sw22840 0.0 103221
02:00−3sw12810 0.0 103321
05:00−3sw11800 0.0 103221
08:00−1wsw11760 0.0 103221
11:00+5nne11702 0.0 1032335
14:00+6nne127218 0.0 1030516
17:00+4ne01880 0.0 102822
20:00−1sw22870 0.0 102925
4 march, thu
thu423:00−1sw22880 0.0 102832
02:00−1sw23880 0.0 102640
05:00−1sw338426 0.0 102357
08:000sw3108016 0.0 1022296
11:00+5wsw511592 0.0 1019848
14:00+6wsw5106310 0.0 1017858
17:00+4sw387818 0.0 1015403
20:00−1sw339029 0.0 101654
5 march, fri
fri523:00−1sw37881 0.0 1015206
02:000sw3118322 0.0 1014340
05:00+2sw41480100 0.0 1013564
08:00+2sw51672100 0.0 1012749
11:00+4sw81668100 0.0 10101156
14:00+5wsw81574100 0.0 10091173
17:00+3w4108499 0.0 10101017
20:00+1w299785 0.5 1012382